Location: Home
(42.5358°N, 72.7383°W)
Time: 14:53:46
(UTC-05:00)

X-37B - Visible Passes

Search period start: 04 December 2022 00:00
Search period end: 14 December 2022 00:00
Orbit: 277 x 277 km, 45.0° (Epoch: 01 November)

Date Brightness Start Highest point End Pass type
(mag) Time Alt. Az. Time Alt. Az. Time Alt. Az.
06 Dec 3.5 18:31:50 10° SW 18:32:02 12° SW 18:32:02 12° SW visible
07 Dec 2.5 16:59:47 10° S 17:00:59 13° SE 17:02:11 10° ESE visible
07 Dec 3.4 18:32:25 10° WSW 18:32:48 14° WSW 18:32:48 14° WSW visible
08 Dec 1.7 16:59:31 10° SSW 17:01:31 22° SSE 17:03:29 10° E visible
08 Dec 3.5 18:33:06 10° W 18:33:32 14° W 18:33:32 14° W visible
09 Dec 0.8 16:59:47 10° SW 17:02:06 38° SSE 17:04:10 12° E visible
09 Dec 3.5 18:33:52 10° W 18:34:13 13° W 18:34:13 13° W visible
10 Dec 0.0 17:00:18 10° WSW 17:02:44 68° SSE 17:04:49 13° ENE visible
10 Dec 3.6 18:34:39 10° WNW 18:34:52 12° WNW 18:34:52 12° WNW visible
11 Dec -0.1 17:00:58 10° WSW 17:03:25 76° NNW 17:05:28 14° ENE visible
11 Dec 3.6 18:35:25 10° WNW 18:35:31 11° WNW 18:35:31 11° WNW visible
12 Dec 0.2 17:01:43 10° W 17:04:08 54° N 17:06:07 14° ENE visible
12 Dec 3.6 18:36:08 10° WNW 18:36:09 10° WNW 18:36:09 10° WNW visible
13 Dec 0.5 17:02:30 10° W 17:04:53 44° N 17:06:47 14° ENE visible
13 Dec 3.7 18:36:50 10° WNW 18:36:50 10° WNW 18:36:50 10° WNW visible
